Location: Kelowna
(49.9000°N, 119.4830°W)
Time: 04:58:25
(UTC-07:00)

OTV 5 (USA 277) - Visible Passes

Search period start: 19 April 2018 00:00
Search period end: 29 April 2018 00:00
Orbit: 350 x 361 km, 54.5° (Epoch: 17 April)

Date Brightness Start Highest point End Pass type
(mag) Time Alt. Az. Time Alt. Az. Time Alt. Az.
19 Apr ? 20:41:25 10° SSW 20:44:05 30° SE 20:46:48 10° ENE visible
19 Apr ? 22:16:13 10° W 22:19:10 53° NNW 22:19:53 40° NNE visible
20 Apr ? 21:08:33 10° WSW 21:11:33 80° SSE 21:14:33 10° ENE visible
20 Apr ? 22:44:08 10° WNW 22:46:55 35° N 22:47:06 34° N visible
21 Apr ? 21:36:16 10° W 21:39:11 49° NNW 21:42:07 10° ENE visible
21 Apr ? 23:12:00 10° WNW 23:13:59 27° NNW 23:13:59 27° NNW visible
22 Apr ? 22:04:11 10° WNW 22:06:57 34° N 22:09:02 15° NE visible
22 Apr ? 23:39:42 10° WNW 23:40:43 18° NW 23:40:43 18° NW visible
23 Apr ? 20:56:18 10° W 20:59:13 47° NNW 21:02:08 10° ENE visible
23 Apr ? 22:32:03 10° WNW 22:34:47 32° N 22:35:38 27° NE visible
24 Apr ? 21:24:14 10° WNW 21:27:00 33° N 21:29:47 10° ENE visible
24 Apr ? 22:59:43 10° WNW 23:02:09 38° NNW 23:02:09 38° NNW visible
25 Apr ? 21:52:04 10° WNW 21:54:51 32° N 21:56:58 14° ENE visible
25 Apr ? 23:27:18 10° WNW 23:28:36 23° WNW 23:28:36 23° WNW visible
26 Apr ? 20:44:17 10° WNW 20:47:03 33° N 20:49:49 10° ENE visible
26 Apr ? 22:19:44 10° WNW 22:22:38 43° NNE 22:23:24 34° ENE visible
26 Apr ? 23:54:57 10° WNW 23:55:03 11° WNW 23:55:03 11° WNW visible
27 Apr ? 21:12:06 10° WNW 21:14:53 33° N 21:17:39 10° ENE visible
27 Apr ? 22:47:19 10° WNW 22:49:50 59° NW 22:49:50 59° NW visible
28 Apr ? 21:39:45 10° WNW 21:42:41 45° NNE 21:44:37 18° E visible
28 Apr ? 23:15:00 10° WNW 23:16:16 21° W 23:16:16 21° W visible
